PICSAT (43132 NORAD) Tracking and Keplerian Element Data

This shows tracking and keplerian element data for the satellite.

Feedback or suggestion? Click here.




ElementValue
Catalog43132
NamePICSAT
Epoch Orbit2836
Epoch Day198.73298738
Epoch Year2018
RAAN261.4927
Inclination97.532
Eccentricity0.0009859
Argument of Perigee1.8658
Mean Anonmoly358.2613
Mean Motion15.22717962
Decay Rate1E-05
L11 43132U 18004X 18198.73298738 .00001000 00000-0 45968-4 0 9997
L22 43132 97.5320 261.4927 0009859 1.8658 358.2613 15.22717962 28360

Live tracking and technical data element details for PICSAT (NORAD 43132). PICSAT can be tracked NOW for your location showing map with azimuth and elevation plus other details from your city location.

Track the satellite on the map from your city or location and see movement details for azimuth, elevation, latitude, longitude, range, height, and movement on the map or in text.







IsCatalogInMostPopularTable: catalog: 43132, numindb: 137
Update: records affected: 1



GetName: 43132 PICSAT

Hit Count: updated at: Fri, 20 Jul 2018 20:35:23 GMT